sat.trackr.live / text

‹ back to catalog

STARLINK-34329

NORAD 64256 · 2025-120A

PAYLOAD ACTIVE UNKNOWN

§ Identity

Operator
Country
US
Launch date
2025-06-04
Launch site
AFWTR
Launch vehicle
Mass (kg)
RCS (m²)

Purposes: comms

External: N2YO · Heavens-Above · Gunter

§ Orbital elements

Epoch: 2026-09-20T08:36:19.940832Z

Period
93.85 min
Inclination
53.1586°
Eccentricity
0.0001183
Mean motion
15.34395069 rev/d
Perigee alt
461.9 km
Apogee alt
463.5 km
Semi-major
6,840.9 km
B*
1.7848e-4
RAAN
286.6001°
Arg perigee
75.5530°
Mean anomaly
284.5604°
Rev number
7,380

§ Raw data

STARLINK-343291 64256U 25120A   26263.35856413  .00005658  00000+0  17848-3 0  99912 64256  53.1586 286.6001 0001183  75.5530 284.5604 15.34395069 73806

JSON: /api/v1/satellites/64256 · /tle

For live sub-satellite position, see the globe view (requires WebGL).

§ Visibility from observer

Set your observer location to see the next 7 days of passes ≥ 10°. The values pass through the URL so the page stays shareable.

No JS? Fill the form by hand. The geolocation button needs JavaScript.